Location: Antichan
(42.9728°N, 0.6667°E)
Time: 13:13:30
(UTC+00:00)

USA 267 - Pass Details

Date: 15 August 2020
Orbit: 1101 x 1106 km, 123.0° (Epoch: 22 September)

Event Time Altitude Azimuth Distance (km) Brightness Sun altitude
Rises 21:34:26 0° 48° (NE) 3,928 6.2 -24.1°
Reaches altitude 10° 21:36:55 10° 48° (NE) 2,968 5.5 -24.4°
Maximum altitude 21:43:29 83° 322° (NW) 1,117 3.2 -25.1°
Drops below altitude 10° 21:50:02 10° 235° (SW) 2,960 5.5 -25.8°
Sets 21:52:31 0° 235° (SW) 3,916 6.2 -26.1°
